Location: ??
(35.1714°N, 128.2806°E)
Time: 15:25:53
(UTC+00:00)

Cosmos 2195 Rocket - Pass Details

Date: 29 October 2020
Orbit: 948 x 993 km, 82.9° (Epoch: 30 November)

Event Time Altitude Azimuth Distance (km) Brightness Sun altitude
Rises 20:00:37 0° 185° (S) 3,662 7.5 -22.1°
Reaches altitude 10° 20:03:08 10° 186° (S) 2,711 6.8 -21.6°
Maximum altitude 20:09:21 87° 275° (W) 972 4.4 -20.3°
Drops below altitude 10° 20:15:32 10° 6° (N) 2,696 6.8 -19.0°
Sets 20:18:02 0° 6° (N) 3,640 7.5 -18.5°
